FW5901 Port St. Lucie FL US current weather conditions

sailwx.info

Wind from 005 at 2 knots gusting 6

Air temperature 17.8° C
Dewpoint 14.7° C

Last reported at 2020-Jan-25 14:04 UTC.
Time now 2020-Jan-25 14:17 UTC

Location: N 27°17' W 080°27'.
View on Google Maps.

See reports from other nearby stations

  
Tides and Currents Weather Stations Pressure Air Temp Water Temp Dewpoint Dewpoint Depression Visibility Wind Speed Wind Dir Waves Ship Positions
date/time (UTC)wind fromknots sea level pressurealtimeterstation pressurevisibilityair tempwater tempwave heightnotes
2020-Jan-25 14:04 005 2 gusting 6 17.8
2020-Jan-25 13:54 355 2 gusting 8 17.2
2020-Jan-25 13:49 022 4 gusting 7 16.7
2020-Jan-25 13:44 325 2 gusting 8 16.7
2020-Jan-25 13:39 336 1 gusting 8 16.7
2020-Jan-25 13:34 298 2 gusting 8 16.7
2020-Jan-25 13:29 327 4 gusting 6 16.7
2020-Jan-25 13:24 300 3 gusting 6 16.7
2020-Jan-25 13:19 314 1 gusting 3 17.2
2020-Jan-25 13:14 303 1 gusting 4 17.2
2020-Jan-25 13:09 294 1 gusting 4 17.2
2020-Jan-25 13:04 309 1 gusting 6 17.2
2020-Jan-25 12:59 294 2 gusting 6 17.2
2020-Jan-25 12:54 293 2 gusting 4 17.2
2020-Jan-25 12:49 299 1 gusting 6 17.2
2020-Jan-25 12:44 299 2 gusting 6 17.2
2020-Jan-25 12:39 298 2 gusting 4 17.2
2020-Jan-25 12:34 306 2 gusting 6 16.7
2020-Jan-25 12:29 296 3 gusting 6 16.7
2020-Jan-25 12:24 296 1 gusting 6 16.7
2020-Jan-25 12:19 280 3 gusting 6 16.7
2020-Jan-25 12:14 303 3 gusting 6 16.7
2020-Jan-25 12:09 291 3 gusting 6 16.7
2020-Jan-25 12:04 271 3 gusting 4 16.7
2020-Jan-25 11:59 242 2 gusting 3 16.7
2020-Jan-25 11:54 237 0 gusting 2 16.7
2020-Jan-25 11:49 236 1 gusting 3 16.7
2020-Jan-25 11:44 236 1 gusting 3 16.7
2020-Jan-25 11:39 236 0 gusting 2 16.7
2020-Jan-25 11:34 236 0 gusting 2 16.7
2020-Jan-25 11:29 236 1 gusting 2 16.7
2020-Jan-25 11:24 236 1 gusting 2 16.7
2020-Jan-25 11:19 236 1 gusting 2 16.7
2020-Jan-25 11:14 236 1 gusting 2 16.7
2020-Jan-25 11:09 235 1 gusting 2 16.7
2020-Jan-25 11:04 236 0 gusting 1 17.2
2020-Jan-25 10:59 235 0 gusting 1 17.2
2020-Jan-25 10:54 236 0 gusting 1 17.2
2020-Jan-25 10:49 236 0 gusting 2 17.2
2020-Jan-25 10:44 235 0 gusting 2 17.2
2020-Jan-25 10:39 236 0 gusting 1 17.2
2020-Jan-25 10:34 236 0 gusting 1 17.2
2020-Jan-25 10:29 236 0 gusting 1 17.2
2020-Jan-25 10:24 235 1 gusting 1 17.2
2020-Jan-25 10:19 235 0 gusting 2 17.2
2020-Jan-25 10:14 235 0 gusting 1 17.8
2020-Jan-25 10:09 235 0 gusting 1 17.8
2020-Jan-25 10:04 235 17.8
2020-Jan-25 09:59 235 0 gusting 2 17.8
2020-Jan-25 09:54 236 0 gusting 2 17.8
2020-Jan-25 09:49 236 0 gusting 3 17.8
2020-Jan-25 09:44 236 1 gusting 2 17.8
2020-Jan-25 09:39 238 1 gusting 2 17.8
2020-Jan-25 09:34 238 0 gusting 2 17.8
2020-Jan-25 09:29 238 1 gusting 2 17.8
2020-Jan-25 09:24 244 0 gusting 1 17.8
2020-Jan-25 09:19 244 17.8
2020-Jan-25 09:14 244 0 gusting 1 17.8
2020-Jan-25 09:09 244 17.8
2020-Jan-25 09:04 244 0 gusting 1 18.3
2020-Jan-25 08:59 244 0 gusting 1 18.3
2020-Jan-25 08:54 244 0 gusting 1 18.3
2020-Jan-25 08:49 244 0 gusting 2 18.3
2020-Jan-25 08:44 244 1 gusting 2 18.3
2020-Jan-25 08:39 244 18.3
2020-Jan-25 08:34 244 0 gusting 2 18.3
2020-Jan-25 08:29 244 1 gusting 3 18.3
2020-Jan-25 08:24 244 1 gusting 3 18.3
2020-Jan-25 08:19 187 0 gusting 2 18.3
2020-Jan-25 08:14 187 0 gusting 2 18.3
2020-Jan-25 08:09 186 1 gusting 2 18.3
2020-Jan-25 08:04 186 0 gusting 2 18.3
2020-Jan-25 07:59 186 0 gusting 2 18.3
2020-Jan-25 07:54 185 0 gusting 2 18.9
2020-Jan-25 07:49 185 0 gusting 3 18.9
2020-Jan-25 07:44 184 0 gusting 3 18.9
2020-Jan-25 07:39 164 0 gusting 2 18.9
2020-Jan-25 07:34 164 1 gusting 3 18.9
2020-Jan-25 07:29 163 1 gusting 2 18.9
2020-Jan-25 07:24 163 1 gusting 2 18.9
2020-Jan-25 07:19 163 0 gusting 2 18.3
2020-Jan-25 07:14 163 1 gusting 3 18.3
2020-Jan-25 07:09 163 18.3
2020-Jan-25 07:04 163 18.3
2020-Jan-25 06:59 163 18.3
2020-Jan-25 06:54 163 18.3
2020-Jan-25 06:49 163 18.3
2020-Jan-25 06:44 163 18.3
2020-Jan-25 06:39 163 1 gusting 2 18.3
2020-Jan-25 06:34 163 1 gusting 2 18.9
2020-Jan-25 06:29 163 1 gusting 4 18.9
2020-Jan-25 06:24 163 1 gusting 4 18.9
2020-Jan-25 06:19 162 3 gusting 4 18.9
2020-Jan-25 06:14 160 1 gusting 4 18.9
2020-Jan-25 06:09 160 1 gusting 4 18.9
2020-Jan-25 06:04 160 1 gusting 3 18.9
2020-Jan-25 05:59 160 0 gusting 2 18.9
2020-Jan-25 05:54 160 1 gusting 4 18.9
2020-Jan-25 05:49 160 2 gusting 4 18.9
2020-Jan-25 05:44 159 1 gusting 4 18.9
2020-Jan-25 05:39 159 2 gusting 4 18.9
2020-Jan-25 05:34 156 2 gusting 4 18.9
2020-Jan-25 05:29 169 2 gusting 4 18.9
2020-Jan-25 05:24 190 1 gusting 4 18.9
2020-Jan-25 05:19 175 2 gusting 5 18.9
2020-Jan-25 05:14 164 3 gusting 4 18.9
2020-Jan-25 05:09 173 3 gusting 6 18.9
2020-Jan-25 05:04 176 3 gusting 6 18.9
2020-Jan-25 04:59 162 2 gusting 6 18.9
2020-Jan-25 04:54 151 3 gusting 5 18.9
2020-Jan-25 04:49 149 3 gusting 5 18.9
2020-Jan-25 04:44 159 2 gusting 6 19.4
2020-Jan-25 04:39 158 3 gusting 5 19.4
2020-Jan-25 04:34 171 2 gusting 4 18.9
2020-Jan-25 04:29 177 0 gusting 3 18.9
2020-Jan-25 04:24 177 1 gusting 3 18.9
2020-Jan-25 04:19 174 1 gusting 3 18.9
2020-Jan-25 04:14 173 2 gusting 6 18.9
2020-Jan-25 04:09 154 3 gusting 6 18.9
2020-Jan-25 04:04 142 2 gusting 3 18.9
2020-Jan-25 03:59 138 0 gusting 1 18.9
2020-Jan-25 03:54 138 18.3
2020-Jan-25 03:49 138 18.3
2020-Jan-25 03:44 138 0 gusting 1 18.3
2020-Jan-25 03:39 138 18.3
2020-Jan-25 03:34 138 18.3
2020-Jan-25 03:29 138 18.3
2020-Jan-25 03:24 138 18.3
2020-Jan-25 03:19 138 18.3
2020-Jan-25 03:14 138 18.3
2020-Jan-25 03:09 138 18.3
2020-Jan-25 03:04 138 18.3
2020-Jan-25 02:59 138 18.3
2020-Jan-25 02:54 138 18.3
2020-Jan-25 02:49 138 18.3
2020-Jan-25 02:44 138 18.3
2020-Jan-25 02:39 138 18.3
2020-Jan-25 02:34 138 18.3
2020-Jan-25 02:29 138 18.3
2020-Jan-25 02:24 138 18.3
2020-Jan-25 02:19 138 18.3
2020-Jan-25 02:14 138 18.3
2020-Jan-25 02:09 138 18.3
2020-Jan-25 02:04 138 18.3
2020-Jan-25 01:59 138 18.3
2020-Jan-25 01:54 138 18.3
2020-Jan-25 01:49 138 18.3
2020-Jan-25 01:44 138 18.3
2020-Jan-25 01:39 138 18.3
2020-Jan-25 01:34 138 18.3
2020-Jan-25 01:29 138 18.3
2020-Jan-25 01:24 138 18.3
2020-Jan-25 01:19 138 18.3
2020-Jan-25 01:14 138 18.3
2020-Jan-25 01:09 138 18.3
2020-Jan-25 01:04 138 18.9
2020-Jan-25 00:59 138 18.9
2020-Jan-25 00:54 138 18.9
2020-Jan-25 00:49 138 18.9
2020-Jan-25 00:44 138 18.9
2020-Jan-25 00:39 138 19.4
2020-Jan-25 00:34 138 19.4
2020-Jan-25 00:29 138 19.4
2020-Jan-25 00:24 138 19.4
2020-Jan-25 00:19 138 19.4
2020-Jan-25 00:14 138 19.4
2020-Jan-25 00:09 138 20.0
2020-Jan-25 00:04 138 20.0
2020-Jan-24 23:59 138 20.0
2020-Jan-24 23:54 138 20.0
2020-Jan-24 23:49 138 20.0
2020-Jan-24 23:44 138 20.6
2020-Jan-24 23:39 138 20.6
2020-Jan-24 23:34 138 20.6
2020-Jan-24 23:29 138 20.6
2020-Jan-24 23:24 138 21.1
2020-Jan-24 23:19 138 21.1
2020-Jan-24 23:14 138 21.7
2020-Jan-24 23:09 138 21.7
2020-Jan-24 23:04 138 21.7
2020-Jan-24 22:59 138 22.2
2020-Jan-24 22:54 138 22.2
2020-Jan-24 22:49 138 0 gusting 2 22.2
2020-Jan-24 22:44 138 0 gusting 3 22.2
2020-Jan-24 22:39 138 1 gusting 2 22.8
2020-Jan-24 22:34 138 1 gusting 4 22.8
2020-Jan-24 22:29 138 2 gusting 4 23.3
2020-Jan-24 22:24 119 1 gusting 3 23.3
2020-Jan-24 22:19 123 2 gusting 3 23.3
2020-Jan-24 22:14 125 1 gusting 2 23.9
2020-Jan-24 22:09 124 0 gusting 3 23.9
2020-Jan-24 22:04 124 1 gusting 3 23.9
2020-Jan-24 21:59 124 1 gusting 3 23.9
2020-Jan-24 21:54 121 2 gusting 3 23.9
2020-Jan-24 21:49 098 1 gusting 2 23.9
2020-Jan-24 21:44 090 0 gusting 2 23.9
2020-Jan-24 21:39 070 0 gusting 6 23.9
2020-Jan-24 21:34 127 1 gusting 6 24.4
2020-Jan-24 21:29 150 0 gusting 3 23.9
2020-Jan-24 21:24 147 1 gusting 4 23.9
2020-Jan-24 21:19 119 2 gusting 4 23.9
2020-Jan-24 21:14 132 0 gusting 2 23.3
2020-Jan-24 21:09 130 0 gusting 3 23.3
2020-Jan-24 21:04 130 0 gusting 4 23.3
2020-Jan-24 20:59 132 2 gusting 6 23.3
2020-Jan-24 20:54 141 2 gusting 6 23.3
2020-Jan-24 20:49 140 2 gusting 5 23.3
2020-Jan-24 20:44 137 2 gusting 4 23.9
2020-Jan-24 20:39 134 2 gusting 4 23.3
2020-Jan-24 20:34 103 2 gusting 6 23.3
2020-Jan-24 20:29 140 2 gusting 6 23.3
2020-Jan-24 20:24 146 2 gusting 4 22.8
2020-Jan-24 20:19 186 2 gusting 4 22.8
2020-Jan-24 20:14 172 2 gusting 6 22.8
2020-Jan-24 20:09 157 4 gusting 6 22.8
2020-Jan-24 20:04 153 3 gusting 6 22.8
2020-Jan-24 19:59 129 3 gusting 6 22.8
2020-Jan-24 19:54 144 3 gusting 6 22.8
2020-Jan-24 19:49 148 2 gusting 6 22.8
2020-Jan-24 19:44 161 3 gusting 6 22.8
2020-Jan-24 19:39 144 2 gusting 5 22.8
2020-Jan-24 19:34 146 2 gusting 4 22.8
2020-Jan-24 19:29 137 1 gusting 6 23.3
2020-Jan-24 19:24 150 2 gusting 6 23.3
2020-Jan-24 19:19 120 0 gusting 6 23.3
2020-Jan-24 19:14 134 2 gusting 6 23.3
2020-Jan-24 19:09 135 2 gusting 6 23.3
2020-Jan-24 19:04 142 2 gusting 5 23.9
2020-Jan-24 18:59 119 1 gusting 6 23.3
2020-Jan-24 18:54 115 0 gusting 8 23.3
2020-Jan-24 18:49 138 2 gusting 8 22.8
2020-Jan-24 18:44 121 2 gusting 6 22.8
2020-Jan-24 18:39 131 2 gusting 7 23.3
2020-Jan-24 18:34 146 4 gusting 7 23.3
2020-Jan-24 18:29 116 3 gusting 7 23.3
2020-Jan-24 18:24 156 4 gusting 7 23.3
2020-Jan-24 18:19 127 3 gusting 6 23.3
2020-Jan-24 18:14 076 2 gusting 7 23.3
2020-Jan-24 18:09 138 2 gusting 8 22.8
2020-Jan-24 18:04 136 3 gusting 7 22.8
2020-Jan-24 17:59 096 1 gusting 7 22.2
2020-Jan-24 17:54 065 4 gusting 6 22.2
2020-Jan-24 17:49 136 0 gusting 6 22.2
2020-Jan-24 17:44 098 1 gusting 6 21.7
2020-Jan-24 17:39 101 0 gusting 6 21.7
2020-Jan-24 17:34 128 3 gusting 7 22.2
2020-Jan-24 17:29 122 3 gusting 7 22.2
2020-Jan-24 17:24 103 0 gusting 6 22.2
2020-Jan-24 17:19 137 1 gusting 3 22.2
2020-Jan-24 17:14 144 0 gusting 3 22.2
2020-Jan-24 17:09 061 0 gusting 3 22.2
2020-Jan-24 17:04 055 0 gusting 3 22.2
2020-Jan-24 16:59 055 0 gusting 6 21.7
2020-Jan-24 16:54 118 2 gusting 6 21.1
2020-Jan-24 16:49 102 2 gusting 6 21.1
2020-Jan-24 16:44 125 1 gusting 3 21.1
2020-Jan-24 16:39 122 1 gusting 3 20.6
2020-Jan-24 16:34 129 1 gusting 3 20.6
2020-Jan-24 16:29 126 1 gusting 3 20.6
2020-Jan-24 16:24 115 1 gusting 3 20.6
2020-Jan-24 16:19 119 1 gusting 3 20.6
2020-Jan-24 16:14 054 1 gusting 4 20.0
2020-Jan-24 16:09 136 1 gusting 3 20.0
2020-Jan-24 16:04 083 1 gusting 3 20.0
2020-Jan-24 15:59 111 0 gusting 2 20.0
2020-Jan-24 15:54 088 20.0
2020-Jan-24 15:49 088 0 gusting 2 19.4
2020-Jan-24 15:44 071 0 gusting 2 19.4
2020-Jan-24 15:39 068 0 gusting 2 19.4
2020-Jan-24 15:34 065 0 gusting 2 19.4
2020-Jan-24 15:29 031 19.4
2020-Jan-24 15:24 062 19.4
2020-Jan-24 15:19 059 19.4
2020-Jan-24 15:14 059 19.4
2020-Jan-24 15:09 059 0 gusting 1 18.9
2020-Jan-24 15:04 059 18.9
2020-Jan-24 14:59 059 0 gusting 2 18.9
2020-Jan-24 14:54 059 0 gusting 2 18.9
2020-Jan-24 14:49 059 0 gusting 2 18.9
2020-Jan-24 14:44 091 18.9
2020-Jan-24 14:39 091 0 gusting 1 18.9
2020-Jan-24 14:34 091 0 gusting 1 18.9
2020-Jan-24 14:29 138 0 gusting 2 18.3
2020-Jan-24 14:24 140 0 gusting 2 18.3
2020-Jan-24 14:19 172 18.3
2020-Jan-24 14:14 173 18.3
2020-Jan-24 14:09 173 17.8
2020-Jan-24 14:04 173 0 gusting 1 17.8
2020-Jan-24 13:59 173 0 gusting 1 17.8
2020-Jan-24 13:54 173 17.8
2020-Jan-24 13:49 173 0 gusting 1 17.8
2020-Jan-24 13:44 173 0 gusting 0 17.8
2020-Jan-24 13:39 173 17.8
2020-Jan-24 13:34 173 17.8
2020-Jan-24 13:29 173 0 gusting 1 17.8
2020-Jan-24 13:24 173 0 gusting 2 17.8
2020-Jan-24 13:19 173 1 gusting 3 17.8
2020-Jan-24 13:14 169 2 gusting 4 17.8
2020-Jan-24 13:09 191 2 gusting 3 17.8
2020-Jan-24 13:04 175 1 gusting 3 17.8
2020-Jan-24 12:59 199 1 gusting 3 17.8
2020-Jan-24 12:54 235 1 gusting 3 17.8
2020-Jan-24 12:49 208 1 gusting 3 17.8
2020-Jan-24 12:44 260 1 gusting 3 17.8
2020-Jan-24 12:39 272 0 gusting 1 17.8
2020-Jan-24 12:34 272 0 gusting 1 17.2
2020-Jan-24 12:29 272 0 gusting 1 17.2
2020-Jan-24 12:24 272 17.2
2020-Jan-24 12:19 272 17.2
2020-Jan-24 12:14 272 17.2
2020-Jan-24 12:09 272 17.2
2020-Jan-24 12:04 272 17.2
2020-Jan-24 11:59 272 17.2
2020-Jan-24 11:54 272 17.2
2020-Jan-24 11:49 272 17.2
2020-Jan-24 11:44 272 17.2
2020-Jan-24 11:39 272 17.2
2020-Jan-24 11:34 272 17.2
2020-Jan-24 11:29 272 17.2
2020-Jan-24 11:24 272 17.2
2020-Jan-24 11:19 272 17.2
2020-Jan-24 11:14 272 17.2
2020-Jan-24 11:09 272 17.2
2020-Jan-24 11:04 272 17.2
2020-Jan-24 10:59 272 17.2
2020-Jan-24 10:54 272 17.2
2020-Jan-24 10:49 272 17.2
2020-Jan-24 10:44 272 17.2
2020-Jan-24 10:39 272 17.2
2020-Jan-24 10:34 272 17.2
2020-Jan-24 10:29 272 17.2
2020-Jan-24 10:24 272 17.2
2020-Jan-24 10:19 272 17.2
2020-Jan-24 10:14 272 17.2
2020-Jan-24 10:09 272 17.2
2020-Jan-24 10:04 272 17.2
2020-Jan-24 09:59 272 17.2
2020-Jan-24 09:54 272 17.2
2020-Jan-24 09:49 272 17.2
2020-Jan-24 09:44 272 17.2
2020-Jan-24 09:39 272 17.2
2020-Jan-24 09:34 272 17.2
2020-Jan-24 09:29 272 17.2
2020-Jan-24 09:24 272 17.2
2020-Jan-24 09:19 272 17.2
2020-Jan-24 09:14 272 17.2
2020-Jan-24 09:09 272 17.2
2020-Jan-24 09:04 272 17.2
2020-Jan-24 08:59 272 0 gusting 3 17.2
2020-Jan-24 08:54 272 1 gusting 3 17.2
2020-Jan-24 08:49 272 1 gusting 3 17.2
2020-Jan-24 08:44 254 1 gusting 3 17.2
2020-Jan-24 08:39 242 1 gusting 2 17.2
2020-Jan-24 08:34 242 1 gusting 3 17.2
2020-Jan-24 08:29 254 1 gusting 3 17.2
2020-Jan-24 08:24 176 17.2
2020-Jan-24 08:19 161 17.2
2020-Jan-24 08:14 161 17.2
2020-Jan-24 08:09 161 17.2
2020-Jan-24 08:04 161 17.2
2020-Jan-24 07:59 139 17.2
2020-Jan-24 07:54 138 17.2
2020-Jan-24 07:49 129 17.2
2020-Jan-24 07:44 129 17.2
2020-Jan-24 07:39 129 17.2
2020-Jan-24 07:34 129 17.2
2020-Jan-24 07:29 129 17.2
2020-Jan-24 07:24 129 17.2
2020-Jan-24 07:19 129 17.2
2020-Jan-24 07:14 129 17.2
2020-Jan-24 07:09 129 17.2
2020-Jan-24 07:04 129 17.2
2020-Jan-24 06:59 129 17.2
2020-Jan-24 06:54 129 17.2
2020-Jan-24 06:49 129 17.8
2020-Jan-24 06:44 129 17.8
2020-Jan-24 06:39 129 17.8
2020-Jan-24 06:34 129 17.8
2020-Jan-24 06:29 129 17.8
2020-Jan-24 06:24 129 17.8
2020-Jan-24 06:19 129 0 gusting 2 17.8
2020-Jan-24 06:14 129 17.8
2020-Jan-24 06:09 129 1 gusting 2 17.8
2020-Jan-24 06:04 039 0 gusting 1 17.8
2020-Jan-24 05:59 039 17.8
2020-Jan-24 05:54 039 17.8
2020-Jan-24 05:49 039 17.8
2020-Jan-24 05:44 039 17.8
2020-Jan-24 05:39 039 17.8
2020-Jan-24 05:34 039 17.8
2020-Jan-24 05:29 039 17.8
2020-Jan-24 05:24 039 17.8
2020-Jan-24 05:19 039 17.8
2020-Jan-24 05:14 039 17.8
2020-Jan-24 05:09 039 17.8
2020-Jan-24 05:04 039 17.8
2020-Jan-24 04:59 042 0 gusting 1 17.8
2020-Jan-24 04:54 082 0 gusting 1 17.8
2020-Jan-24 04:49 082 17.8
2020-Jan-24 04:44 082 17.8
2020-Jan-24 04:39 082 0 gusting 1 17.8
2020-Jan-24 04:34 082 17.8
2020-Jan-24 04:29 082 17.8
2020-Jan-24 04:24 082 17.8
2020-Jan-24 04:19 082 17.8
2020-Jan-24 04:14 082 17.8
2020-Jan-24 04:10 082 0 gusting 1 17.8
2020-Jan-24 04:04 082 17.8
2020-Jan-24 03:59 082 0 gusting 1 17.8
2020-Jan-24 03:54 082 17.8
2020-Jan-24 03:49 082 17.8
2020-Jan-24 03:44 082 17.8
2020-Jan-24 03:39 082 17.8
2020-Jan-24 03:34 082 17.8
2020-Jan-24 03:29 082 17.8
2020-Jan-24 03:24 082 17.8
2020-Jan-24 03:19 082 0 gusting 2 17.8
2020-Jan-24 03:14 082 0 gusting 2 17.8
2020-Jan-24 03:09 081 17.8
2020-Jan-24 03:04 082 0 gusting 2 17.8
2020-Jan-24 02:59 084 0 gusting 2 17.8
2020-Jan-24 02:54 074 0 gusting 2 17.8
2020-Jan-24 02:49 071 17.8
2020-Jan-24 02:44 071 17.8
2020-Jan-24 02:39 071 17.8
2020-Jan-24 02:34 072 17.8
2020-Jan-24 02:29 049 0 gusting 1 17.8
2020-Jan-24 02:24 059 17.8
2020-Jan-24 02:19 053 1 gusting 2 17.8
2020-Jan-24 02:14 055 0 gusting 1 17.8
2020-Jan-24 02:09 055 17.8
2020-Jan-24 02:04 055 0 gusting 1 17.8
2020-Jan-24 01:59 055 17.8
2020-Jan-24 01:54 055 17.8
2020-Jan-24 01:49 055 17.8
2020-Jan-24 01:44 055 17.8
2020-Jan-24 01:39 055 17.8
2020-Jan-24 01:34 055 17.8
2020-Jan-24 01:29 055 0 gusting 1 17.8
2020-Jan-24 01:24 055 17.2
2020-Jan-24 01:19 055 17.8
2020-Jan-24 01:14 055 17.8
2020-Jan-24 01:09 055 17.8
2020-Jan-24 01:04 055 17.8
2020-Jan-24 00:59 055 17.8
2020-Jan-24 00:54 055 17.8
2020-Jan-24 00:49 055 17.8
2020-Jan-24 00:44 055 17.8
2020-Jan-24 00:39 055 17.8
2020-Jan-24 00:34 055 17.8
2020-Jan-24 00:29 055 17.8
2020-Jan-24 00:24 055 17.8
2020-Jan-24 00:19 055 17.8
2020-Jan-24 00:14 055 17.8
2020-Jan-24 00:09 055 18.3
2020-Jan-24 00:05 055 18.3
2020-Jan-23 23:59 054 18.3
2020-Jan-23 23:54 054 18.3
2020-Jan-23 23:49 054 18.3
2020-Jan-23 23:44 054 18.3
2020-Jan-23 23:39 054 18.3
2020-Jan-23 23:34 055 18.3
2020-Jan-23 23:29 054 18.3
2020-Jan-23 23:24 056 18.3
2020-Jan-23 23:19 056 18.3
2020-Jan-23 23:14 056 18.3
2020-Jan-23 23:09 056 18.3
2020-Jan-23 23:04 056 18.3
2020-Jan-23 22:59 055 18.3
2020-Jan-23 22:54 055 18.3
2020-Jan-23 22:49 055 18.3
2020-Jan-23 22:44 056 18.3
2020-Jan-23 22:39 056 18.3
2020-Jan-23 22:34 079 0 gusting 1 18.3
2020-Jan-23 22:29 079 18.3
2020-Jan-23 22:24 080 18.3
2020-Jan-23 22:19 080 18.3
2020-Jan-23 22:14 080 0 gusting 1 18.3
2020-Jan-23 22:09 082 18.3
2020-Jan-23 22:04 107 18.3
2020-Jan-23 21:59 107 18.3
2020-Jan-23 21:54 107 0 gusting 1 18.3
2020-Jan-23 21:49 107 18.3
2020-Jan-23 21:44 107 0 gusting 2 18.3
2020-Jan-23 21:39 107 0 gusting 2 18.9
2020-Jan-23 21:34 107 18.9
2020-Jan-23 21:29 107 18.9
2020-Jan-23 21:24 115 1 gusting 6 18.9
2020-Jan-23 21:19 116 2 gusting 6 18.9
2020-Jan-23 21:14 142 3 gusting 7 18.9
2020-Jan-23 21:09 153 3 gusting 6 19.4
2020-Jan-23 21:04 148 1 gusting 3 19.4
2020-Jan-23 20:59 281 2 gusting 3 19.4
2020-Jan-23 20:54 291 20.0
2020-Jan-23 20:49 291 0 gusting 3 20.0
2020-Jan-23 20:44 288 0 gusting 5 20.0
2020-Jan-23 20:39 271 2 gusting 6 20.6
2020-Jan-23 20:34 274 5 gusting 6 20.6
2020-Jan-23 20:29 060 0 gusting 2 21.7
2020-Jan-23 20:24 060 0 gusting 2 22.2
2020-Jan-23 20:19 090 22.8
2020-Jan-23 20:14 209 0 gusting 3 22.2
2020-Jan-23 20:09 198 1 gusting 5 22.2
2020-Jan-23 20:04 217 2 gusting 5 21.7
2020-Jan-23 19:59 153 2 gusting 5 21.7
2020-Jan-23 19:54 206 21.1
2020-Jan-23 19:49 134 0 gusting 2 21.1
2020-Jan-23 19:44 134 0 gusting 1 20.6
2020-Jan-23 19:39 134 20.6
2020-Jan-23 19:34 134 1 gusting 3 20.6
2020-Jan-23 19:29 132 1 gusting 6 20.6
2020-Jan-23 19:24 142 1 gusting 6 20.6
2020-Jan-23 19:19 118 2 gusting 13 21.1
2020-Jan-23 19:14 140 6 gusting 13 21.7
2020-Jan-23 19:09 314 1 gusting 3 22.2
2020-Jan-23 19:04 042 1 gusting 3 22.8
2020-Jan-23 18:59 347 0 gusting 3 23.3
2020-Jan-23 18:54 355 0 gusting 3 23.3
2020-Jan-23 18:49 101 0 gusting 2 23.3
2020-Jan-23 18:44 055 0 gusting 3 23.3
2020-Jan-23 18:39 055 0 gusting 3 23.3
2020-Jan-23 18:34 251 0 gusting 4 23.3
2020-Jan-23 18:29 139 1 gusting 4 23.3
2020-Jan-23 18:24 324 2 gusting 4 22.8
2020-Jan-23 18:19 043 0 gusting 3 22.8
2020-Jan-23 18:14 331 1 gusting 3 22.8
2020-Jan-23 18:09 321 1 gusting 4 22.2
2020-Jan-23 18:04 302 1 gusting 4 22.2
2020-Jan-23 17:59 322 0 gusting 1 21.7
2020-Jan-23 17:54 322 0 gusting 2 21.7
2020-Jan-23 17:49 322 21.7
2020-Jan-23 17:44 325 0 gusting 2 21.7
2020-Jan-23 17:39 323 0 gusting 2 22.2
2020-Jan-23 17:34 331 1 gusting 2 22.2
2020-Jan-23 17:29 005 0 gusting 3 22.2
2020-Jan-23 17:24 326 1 gusting 3 21.7
2020-Jan-23 17:19 328 1 gusting 2 21.7
2020-Jan-23 17:14 360 0 gusting 2 21.7
2020-Jan-23 17:09 005 0 gusting 2 21.7
2020-Jan-23 17:04 292 0 gusting 2 21.7
2020-Jan-23 16:59 048 0 gusting 2 21.7
2020-Jan-23 16:54 046 0 gusting 2 21.1
2020-Jan-23 16:49 055 0 gusting 3 20.6
2020-Jan-23 16:44 067 1 gusting 5 21.1
2020-Jan-23 16:39 064 2 gusting 6 21.7
2020-Jan-23 16:34 049 0 gusting 2 21.7
2020-Jan-23 16:29 005 0 gusting 2 21.7
2020-Jan-23 16:24 302 0 gusting 2 21.7
2020-Jan-23 16:19 324 0 gusting 1 21.7
2020-Jan-23 16:14 324 0 gusting 2 21.7
2020-Jan-23 16:09 331 0 gusting 3 21.1
2020-Jan-23 16:04 304 2 gusting 3 20.6
2020-Jan-23 15:59 335 0 gusting 2 19.4
2020-Jan-23 15:54 338 0 gusting 2 19.4
2020-Jan-23 15:49 338 0 gusting 2 19.4
2020-Jan-23 15:44 296 0 gusting 2 18.9
2020-Jan-23 15:39 296 1 gusting 2 18.3
2020-Jan-23 15:34 287 18.3
2020-Jan-23 15:29 287 17.8
2020-Jan-23 15:24 287 0 gusting 3 17.8
2020-Jan-23 15:19 287 1 gusting 3 17.2
2020-Jan-23 15:14 287 16.7
2020-Jan-23 15:09 287 0 gusting 4 16.7
2020-Jan-23 15:04 287 2 gusting 4 16.1
2020-Jan-23 14:59 321 0 gusting 3 16.1
2020-Jan-23 14:54 309 0 gusting 4 16.1
2020-Jan-23 14:49 296 1 gusting 4 15.6
2020-Jan-23 14:44 338 0 gusting 4 15.0
2020-Jan-23 14:39 350 0 gusting 6 14.4
2020-Jan-23 14:34 287 3 gusting 6 14.4
2020-Jan-23 14:29 355 0 gusting 3 14.4
2020-Jan-23 14:24 336 0 gusting 3 13.9
2020-Jan-23 14:19 304 1 gusting 3 13.9
2020-Jan-23 14:14 346 0 gusting 2 13.9
2020-Jan-23 14:09 360 0 gusting 2 13.3
2020-Jan-23 14:04 333 1 gusting 3 13.3